Regional Weather Roundup
Issued by NWS

Home | Current Version | Previous Version | Graphics & Text | Print | Product List | Glossary Off
Versions: 1 2 3 4 5 6 7 8 9 10 11 12 13 14 15 16 17 18 19 20 21 22 23 24 25 26 27 28 29 30 31 32 33 34 35 36 37 38 39 40 41 42 43 44 45 46 47 48 49 50

000
ASUS43 KOAX 220710
RWRNE

WEATHER ROUNDUP FOR NEBRASKA
NATIONAL WEATHER SERVICE OMAHA NE
100 AM CST WED NOV 22 2017

NOTES: SATELLITE DATA IS BEING USED TO AUGMENT CLOUD COVER ABOVE
       12000 FEET.
       "FAIR" INDICATES FEW OR NO CLOUDS BELOW 12,000 FEET WITH NO
       SIGNIFICANT WEATHER AND/OR OBSTRUCTIONS TO VISIBILITY.


NEZ001>004-019>022-054>056-220800-
NEBRASKA PANHANDLE

CITY           SKY/WX    TMP DP  RH WIND       PRES   REMARKS
SCOTTSBLUFF    CLOUDY    32  25  75 E6        30.20F WCI  26
ALLIANCE       CLOUDY    28  26  92 S7        30.19F WCI  21
CHADRON        CLOUDY    24  22  91 NW5       30.18F WCI  18
GORDON         FAIR      31  25  79 SW3       30.19F
SIDNEY         CLOUDY    34  29  82 SW8       30.23F WCI  27
$$

NEZ057>060-069>072-079>082-220800-
SOUTHWEST NEBRASKA

CITY           SKY/WX    TMP DP  RH WIND       PRES   REMARKS
NORTH PLATTE   CLOUDY    22  15  75 E3        30.33S
IMPERIAL       CLOUDY    27  23  85 S5        30.30F WCI  22
LEXINGTON      CLOUDY    23  14  70 S6        30.36S WCI  15
MCCOOK         CLOUDY    25  16  68 SE5       30.36R WCI  19
OGALLALA       CLOUDY    32  25  75 S5        30.28F WCI  27
$$

NEZ005>010-023>029-035>040-094-220800-
NORTH CENTRAL NEBRASKA

CITY           SKY/WX    TMP DP  RH WIND       PRES   REMARKS
VALENTINE      CLOUDY    20  14  77 E3        30.28F
AINSWORTH      CLOUDY    21  13  72 S7        30.29F WCI  12
BROKEN BOW     CLOUDY    17  12  80 CALM      30.34S
O`NEILL        CLOUDY    15  12  90 CALM      30.36R
ORD            CLOUDY    14   9  80 CALM      30.35F
THEDFORD       CLOUDY    25  16  69 S7        30.30F WCI  17
$$

NEZ041-046>049-061>064-073>077-083>087-220800-
SOUTH CENTRAL NEBRASKA

CITY           SKY/WX    TMP DP  RH WIND       PRES   REMARKS
GRAND ISLAND   CLOUDY    17  13  84 SW3       30.40S
AURORA         CLOUDY    13   9  82 W3        30.39F
HASTINGS       CLOUDY    17   9  70 CALM      30.39F
HEBRON         CLOUDY    16  11  81 W5        30.43F WCI   9
HOLDREGE       CLOUDY    21  12  67 SW5       30.38R WCI  15
KEARNEY        CLOUDY    20  13  74 W3        30.38F
YORK           CLOUDY    10   9  92 W8        30.41R WCI  -1
$$

NEZ011>018-030>034-042>045-220800-
NORTHEAST NEBRASKA

CITY           SKY/WX    TMP DP  RH WIND       PRES   REMARKS
NORFOLK        CLOUDY    12   9  87 W5        30.38F WCI   4
ALBION         CLOUDY    11   8  86 CALM      30.39R
BLAIR          CLOUDY    18  11  76 NW6       30.40S WCI   9
COLUMBUS       CLOUDY    12   8  84 CALM      30.41F
FREMONT        CLOUDY    14  10  84 CALM      30.42S
TEKAMAH        PTCLDY    14   8  77 NW5       30.43R WCI   6
WAYNE          CLOUDY    11   7  85 CALM      30.40F
$$

NEZ050>053-065>068-078-088>093-220800-
SOUTHEAST NEBRASKA

CITY           SKY/WX    TMP DP  RH WIND       PRES   REMARKS
LINCOLN        CLOUDY    19  12  74 MISG      30.44S
OMAHA EPPLEY   CLOUDY    20  10  65 CALM      30.43S
BEATRICE       CLOUDY    12   9  85 NW7       30.43R WCI   2
FALLS CITY     CLOUDY    19  13  77 NW5       30.42S WCI  12
NEBRASKA CITY  CLOUDY    20  13  73 N7        30.42S WCI  11
PLATTSMOUTH    PTCLDY    18  12  77 NW6       30.40F WCI  10
$$

NEZ044-045-051>053-067-220800-
OMAHA AREA

CITY           SKY/WX    TMP DP  RH WIND       PRES   REMARKS
OMAHA EPPLEY   CLOUDY    20  10  65 CALM      30.43S
BLAIR          CLOUDY    18  11  76 NW6       30.40S WCI   9
FREMONT        CLOUDY    14  10  84 CALM      30.42S
MILLARD        CLOUDY    21  13  71 CALM      30.42F
OFFUTT AFB     CLOUDY    17   9  72 NW7       30.41F WCI   7
PLATTSMOUTH    PTCLDY    18  12  77 NW6       30.40F WCI  10
WAHOO          FAIR      20  13  73 NW7       30.41S WCI  11
$$




USA.gov is the U.S. government's official web portal to all federal, state and local government web resources and services.